TimeCDT,TemperatureF,Dew PointF,Humidity,Sea Level PressureIn,VisibilityMPH,Wind Direction,Wind SpeedMPH,Gust SpeedMPH,PrecipitationIn,Events,Conditions,WindDirDegrees,DateUTC
12:15 AM,53.6,51.8,94,30.23,9.0,East,11.5,16.1,0.00,,Overcast,90,2013-04-27 05:15:00
12:35 AM,53.6,50.0,88,30.23,10.0,East,8.1,-,0.00,,Overcast,90,2013-04-27 05:35:00
12:55 AM,53.6,50.0,88,30.23,10.0,East,8.1,-,0.00,,Overcast,90,2013-04-27 05:55:00
1:15 AM,53.6,50.0,88,30.23,10.0,East,8.1,-,0.00,,Overcast,80,2013-04-27 06:15:00
1:35 AM,53.6,50.0,88,30.22,10.0,ENE,6.9,-,0.00,,Overcast,60,2013-04-27 06:35:00
1:55 AM,53.6,51.8,94,30.22,8.0,ENE,9.2,-,0.00,,Overcast,60,2013-04-27 06:55:00
2:15 AM,53.6,51.8,94,30.20,10.0,East,11.5,-,0.00,,Overcast,90,2013-04-27 07:15:00
2:35 AM,53.6,51.8,94,30.17,9.0,ESE,12.7,18.4,0.00,,Mostly Cloudy,110,2013-04-27 07:35:00
2:55 AM,53.6,51.8,94,30.16,9.0,ESE,8.1,-,0.00,,Scattered Clouds,110,2013-04-27 07:55:00
3:15 AM,53.6,51.8,94,30.15,10.0,East,8.1,-,0.00,,Scattered Clouds,100,2013-04-27 08:15:00
3:35 AM,53.6,51.8,94,30.14,10.0,ESE,9.2,-,0.00,,Scattered Clouds,110,2013-04-27 08:35:00
3:55 AM,53.6,51.8,94,30.13,10.0,ESE,9.2,-,0.00,,Mostly Cloudy,110,2013-04-27 08:55:00
4:15 AM,53.6,51.8,94,30.12,10.0,ESE,9.2,-,0.00,,Mostly Cloudy,120,2013-04-27 09:15:00
4:35 AM,53.6,51.8,94,30.12,10.0,ESE,6.9,-,0.00,,Mostly Cloudy,110,2013-04-27 09:35:00
4:55 AM,53.6,51.8,94,30.11,10.0,ESE,8.1,-,0.00,,Overcast,120,2013-04-27 09:55:00
5:15 AM,53.6,51.8,94,30.10,10.0,SE,6.9,-,0.00,,Overcast,130,2013-04-27 10:15:00
5:35 AM,53.6,51.8,94,30.09,9.0,SE,6.9,-,0.00,,Overcast,130,2013-04-27 10:35:00
6:50 AM,53.6,53.6,100,30.11,5.0,Calm,Calm,-,N/A,Rain-Thunderstorm,Light Thunderstorms and Rain,0,2013-04-27 11:50:00
6:55 AM,53.6,53.6,100,30.10,10.0,Calm,Calm,-,0.00,,Overcast,0,2013-04-27 11:55:00
7:23 AM,53.6,53.6,100,30.12,4.0,NE,4.6,-,N/A,Rain,Light Rain,50,2013-04-27 12:23:00
7:50 AM,53.6,53.6,100,30.14,4.0,Calm,Calm,-,N/A,Rain,Light Rain,0,2013-04-27 12:50:00
8:50 AM,53.6,53.6,100,30.12,4.0,ESE,5.8,-,N/A,,Overcast,110,2013-04-27 13:50:00
9:50 AM,55.4,55.4,100,30.09,6.0,SE,9.2,-,N/A,,Overcast,130,2013-04-27 14:50:00
10:50 AM,60.8,60.8,100,30.09,6.0,South,6.9,-,N/A,,Overcast,170,2013-04-27 15:50:00
11:55 AM,66.2,66.2,100,30.09,7.0,SSW,6.9,-,N/A,,Overcast,210,2013-04-27 16:55:00
1:50 PM,69.8,69.8,100,30.05,8.0,SSW,10.4,-,N/A,,Overcast,210,2013-04-27 18:50:00
2:50 PM,66.2,66.2,100,30.03,8.0,SSW,11.5,-,N/A,,Overcast,210,2013-04-27 19:50:00
3:50 PM,69.8,68.0,94,29.99,10.0,SSW,13.8,-,N/A,,Mostly Cloudy,210,2013-04-27 20:50:00
4:50 PM,71.6,69.8,94,29.97,10.0,SW,9.2,-,N/A,,Mostly Cloudy,220,2013-04-27 21:50:00
5:50 PM,73.4,-9999,N/A,29.94,10.0,SSW,11.5,-,N/A,,Mostly Cloudy,210,2013-04-27 22:50:00
6:50 PM,69.8,68.0,94,29.94,10.0,SSW,8.1,-,N/A,,Mostly Cloudy,200,2013-04-27 23:50:00
7:50 PM,68.0,68.0,100,29.90,10.0,South,5.8,-,N/A,,Mostly Cloudy,170,2013-04-28 00:50:00
9:15 PM,68.0,66.2,94,29.91,10.0,Calm,Calm,-,0.00,,Scattered Clouds,0,2013-04-28 02:15:00
9:35 PM,66.2,66.2,100,29.91,10.0,SW,5.8,-,0.00,,Mostly Cloudy,230,2013-04-28 02:35:00
9:55 PM,68.0,66.2,94,29.92,10.0,WSW,5.8,-,0.00,,Overcast,250,2013-04-28 02:55:00
10:15 PM,68.0,66.2,94,29.94,10.0,West,5.8,-,0.00,,Mostly Cloudy,260,2013-04-28 03:15:00
10:35 PM,64.4,64.4,100,29.94,10.0,WNW,11.5,-,0.00,,Scattered Clouds,300,2013-04-28 03:35:00
10:55 PM,64.4,64.4,100,29.96,9.0,NW,4.6,-,0.00,,Scattered Clouds,310,2013-04-28 03:55:00
11:15 PM,62.6,62.6,100,29.96,9.0,WNW,10.4,-,0.00,,Overcast,300,2013-04-28 04:15:00
11:35 PM,62.6,62.6,100,29.96,9.0,NW,8.1,-,0.00,,Overcast,310,2013-04-28 04:35:00
11:55 PM,60.8,60.8,100,29.98,10.0,West,8.1,-,0.00,,Overcast,280,2013-04-28 04:55:00